[[[{"header":{"parameterUnit":"kt","parameterCategory":2,"dx":1,"dy":1,"la1":30.253999710083008,"la2":30.299108505249023,"lo1":-89.0895004272461,"lo2":-89.04439544677734,"nx":28,"ny":28,"refTime":"2022-10-04T21:00:00:Z","depth":"0","parameterNumber":2,"parameterNumberName":"U-component_of_CURRENTS"},"data":[0.1128,0.1147,0.1201,0.1325,0.1407,0.1442,0.151,0.1753,0.2074,0.258,0.3085,0.3471,0.419,0.4935,0.5182,0.5101,0.46,0.4539,0.4259,0.4701,0.4684,0.4668,0.4604,0.4826,0.4825,0.3584,0.3576,0.3571,0.1161,0.1199,0.1253,0.1411,0.1483,0.1565,0.1737,0.1828,0.2161,0.2616,0.2939,0.3632,0.4145,0.4547,0.508,0.5043,0.4708,0.4925,0.4484,0.4319,0.4809,0.4758,0.5016,0.5016,0.5016,0.5016,0.5016,0.5016,0.1316,0.128,0.1457,0.1527,0.161,0.1708,0.1751,0.2026,0.2284,0.2657,0.288,0.327,0.3847,0.4477,0.4586,0.4863,0.4599,0.4815,0.4797,0.4469,0.4248,0.4716,0.5008,0.5006,0.5006,0.5005,0.5004,0,0.152,0.1591,0.1643,0.1744,0.1807,0.1863,0.202,0.2096,0.242,0.2629,0.294,0.3151,0.3618,0.403,0.4424,0.4572,0.4406,0.4647,0.4524,0.4502,0.4151,0.3974,0.4354,0.4646,0.4643,0.4641,0.4639,0.4638,0.1845,0.1819,0.1963,0.1996,0.2048,0.2104,0.2169,0.2395,0.2522,0.283,0.2914,0.3208,0.3451,0.388,0.415,0.4436,0.4182,0.4569,0.444,0.4327,0.4298,0.3959,0.3795,0.4603,0.4608,0.4611,0.4614,0,0.2057,0.2167,0.2132,0.2289,0.2333,0.2318,0.2484,0.254,0.2733,0.2862,0.2922,0.3215,0.3481,0.3681,0.389,0.398,0.4071,0.4184,0.4232,0.4253,0.4249,0.4211,0.4128,0.3962,0.4395,0.4399,0.4402,0,0.238,0.232,0.2477,0.2443,0.2454,0.258,0.2615,0.2722,0.2894,0.298,0.3162,0.3252,0.3438,0.3602,0.368,0.3881,0.3884,0.3884,0.3904,0.3931,0.3938,0.385,0.3806,0.3828,0.3825,0.3824,0.3822,0,0.2519,0.2585,0.2565,0.2576,0.2667,0.2702,0.2767,0.2891,0.2943,0.3112,0.3162,0.3336,0.3388,0.3505,0.3595,0.3529,0.378,0.3691,0.3808,0.3814,0.3881,0.3886,0.4025,0.3819,0.3819,0.3818,0.3817,0,0.27,0.2721,0.2699,0.2754,0.2758,0.277,0.2844,0.2894,0.3031,0.3077,0.3187,0.3214,0.3338,0.3261,0.3448,0.3374,0.3415,0.3429,0.3439,0.3469,0.3413,0.3695,0.3909,0.3804,0.3526,0.3523,0.352,0,0.2804,0.2778,0.2831,0.2813,0.2787,0.2856,0.2897,0.2943,0.2986,0.304,0.3093,0.311,0.3092,0.3096,0.3168,0.3189,0.3278,0.3152,0.3294,0.3299,0.3367,0.3544,0.3611,0.385,0.3481,0.3485,0.3488,0,0.2833,0.2867,0.2855,0.286,0.2883,0.2845,0.2904,0.2936,0.2975,0.2972,0.3036,0.3023,0.304,0.303,0.301,0.306,0.3215,0.3022,0.3023,0.3146,0.3414,0.3482,0.3515,0.3194,0.3197,0.32,0.3458,0,0.292,0.2911,0.2892,0.2901,0.2889,0.2861,0.287,0.2874,0.2879,0.2888,0.2918,0.2873,0.2884,0.2874,0.2838,0.2932,0.2935,0.2884,0.2857,0.294,0.3039,0.3064,0.2736,0.2734,0.2732,0.273,0,0,0.2959,0.2937,0.292,0.291,0.2902,0.289,0.288,0.2864,0.2812,0.2835,0.2811,0.2784,0.2738,0.2783,0.2807,0.2756,0.2802,0.2748,0.2878,0.2895,0.291,0.301,0.3035,0.2727,0.2726,0.2725,0.2725,0,0.2976,0.2959,0.2942,0.2924,0.29,0.2881,0.2882,0.2833,0.2834,0.2795,0.2793,0.2798,0.2699,0.2717,0.2706,0.2727,0.2728,0.2707,0.2787,0.2859,0.2878,0.2895,0.2997,0.3022,0.272,0.272,0.272,0,0.3016,0.3002,0.2987,0.2943,0.2915,0.2897,0.2884,0.2843,0.2846,0.2785,0.2764,0.2733,0.2685,0.2665,0.265,0.263,0.268,0.2602,0.2611,0.2614,0.2685,0.2707,0.2726,0.2489,0.2489,0.2489,0,0,0.3037,0.3015,0.2984,0.2946,0.2934,0.2894,0.2863,0.2857,0.2815,0.28,0.2756,0.2719,0.2693,0.2672,0.2617,0.2566,0.2589,0.2579,0.259,0.2599,0.2608,0.2681,0.2701,0.2488,0.2488,0.2488,0,0,0.304,0.3014,0.3027,0.2978,0.2947,0.2879,0.2846,0.284,0.2795,0.2808,0.2759,0.2744,0.272,0.2661,0.2658,0.263,0.258,0.2577,0.2683,0.2695,0.2705,0.2738,0.2626,0,0,0,0,0,0.3059,0.3018,0.3031,0.3021,0.2938,0.2873,0.2857,0.284,0.2858,0.2837,0.2813,0.2781,0.2674,0.2668,0.2641,0.2672,0.2475,0.2477,0.248,0.2603,0.2616,0.2628,0,0,0,0,0,0,0.3055,0.3043,0.3031,0.2968,0.2949,0.2874,0.2893,0.2885,0.2862,0.2866,0.2787,0.2777,0.2739,0.2677,0.2653,0.2686,0.2634,0.2476,0.2478,0.248,0.2607,0.2619,0.2628,0,0,0,0,0,0.3051,0.3042,0.293,0.2966,0.2949,0.2913,0.2897,0.289,0.287,0.2799,0.2791,0.2868,0.2737,0.2717,0.2662,0.27,0.265,0.2641,0.2477,0.2479,0.248,0.2613,0,0,0,0,0,0,0.3049,0.3009,0.2924,0.2916,0.3007,0.2917,0.2908,0.2895,0.2803,0.2795,0.2876,0.2881,0.2734,0.2719,0.2704,0.2711,0.2663,0.2654,0.2648,0.2478,0.248,0.2481,0,0,0,0,0,0,0.3014,0.3003,0.292,0.2974,0.2971,0.2921,0.2913,0.2812,0.2802,0.2884,0.2886,0.288,0.2768,0.272,0.2708,0.2549,0.2672,0.2664,0.2658,0.2655,0.2479,0.248,0,0,0,0,0,0,0.3008,0.2998,0.2975,0.2973,0.2971,0.2873,0.2829,0.2748,0.2846,0.2887,0.2856,0.2861,0.2769,0.2756,0.2711,0.2557,0.2551,0.2672,0.2666,0.2662,0.266,0,0,0,0,0,0,0,0.3003,0.3091,0.2982,0.2973,0.2971,0.2844,0.2841,0.2837,0.2847,0.2851,0.2855,0.2859,0.272,0.2711,0.2702,0.2564,0,0,0.2673,0.2669,0,0,0,0,0,0,0,0,0.3093,0.3092,0.2982,0.2981,0.2979,0.2843,0.2841,0.2838,0.2848,0.2851,0.2854,0.2857,0.2717,0.271,0.2703,0,0,0,0,0,0,0,0,0,0,0,0,0,0,0,0.2982,0.2981,0,0.2843,0.2841,0.2839,0.2848,0.2851,0.2854,0.2856,0.2715,0.2709,0.2703,0,0,0,0,0,0,0,0,0,0,0,0,0,0,0,0,0,0,0,0,0,0,0,0,0,0,0,0,0,0,0,0,0,0,0,0,0,0,0,0,0,0,0,0,0,0,0,0,0,0,0,0,0,0,0,0,0,0,0,0,0,0,0,0,0,0,0,0,0]}],[{"header":{"parameterUnit":"kt","parameterCategory":2,"dx":1,"dy":1,"la1":30.253999710083008,"la2":30.299108505249023,"lo1":-89.0895004272461,"lo2":-89.04439544677734,"nx":28,"ny":28,"refTime":"2022-10-04T21:00:00:Z","depth":"0","parameterNumber":3,"parameterNumberName":"V-component_of_CURRENTS"},"data":[0.2568,0.2698,0.2745,0.2797,0.2817,0.2815,0.2831,0.2853,0.2831,0.2794,0.2683,0.2732,0.2316,0.0576,-0.0662,-0.0979,-0.1555,-0.1562,-0.1918,-0.1436,-0.1409,-0.1384,-0.1459,-0.1658,-0.166,-0.2585,-0.2594,-0.2601,0.25,0.2572,0.2721,0.2764,0.2798,0.2825,0.2891,0.2904,0.2845,0.2864,0.2858,0.2623,0.1917,0.1196,0.019,-0.0415,-0.0726,-0.0758,-0.0999,-0.1159,-0.0403,-0.0433,-0.0417,-0.0416,-0.0416,-0.0416,-0.0415,-0.0415,0.2295,0.2432,0.244,0.2563,0.2642,0.2717,0.2799,0.2783,0.281,0.2742,0.2819,0.2723,0.2223,0.1353,0.0856,0.0053,-0.0078,-0.0272,-0.0488,-0.0606,-0.0836,0.0003,0.0091,0.0091,0.009,0.0089,0.0089,0,0.2012,0.1984,0.2109,0.2218,0.2343,0.2453,0.2527,0.2615,0.2526,0.2549,0.2554,0.2501,0.2119,0.1611,0.0981,0.059,-0.0157,0.0079,-0.0227,-0.0583,-0.0724,-0.094,-0.0162,-0.0057,-0.0058,-0.006,-0.006,-0.0061,0.1511,0.1649,0.1719,0.1795,0.1844,0.2032,0.2128,0.2084,0.2113,0.2143,0.2182,0.2073,0.1916,0.1427,0.0842,0.0325,-0.0061,0.0057,-0.0165,-0.0433,-0.0672,-0.082,-0.0994,-0.0079,-0.0077,-0.0075,-0.0073,0,0.1199,0.1129,0.136,0.1399,0.1427,0.1635,0.1671,0.1807,0.1778,0.1883,0.1895,0.1669,0.1445,0.0997,0.0634,0.0266,-0.0184,-0.0117,-0.0027,-0.0039,-0.0458,-0.0659,-0.0828,-0.1031,-0.0225,-0.0224,-0.0223,0,0.0697,0.0878,0.0804,0.0968,0.1199,0.1106,0.1347,0.1325,0.1315,0.1403,0.1156,0.1199,0.0737,0.057,0.0207,-0.0063,-0.0032,-0.0369,-0.0387,-0.035,-0.0344,-0.0586,-0.0789,-0.0427,-0.0427,-0.0428,-0.0428,0,0.0414,0.0403,0.0584,0.0602,0.0637,0.0727,0.0746,0.073,0.078,0.0793,0.0854,0.0645,0.064,0.0358,0.0023,-0.0075,-0.0169,-0.0313,-0.0418,-0.0415,-0.0366,-0.036,-0.0555,-0.0429,-0.0429,-0.0429,-0.043,0,0.0048,0.0099,0.0236,0.0347,0.0371,0.0409,0.0549,0.0527,0.0484,0.0459,0.0366,0.0266,0.0146,-0.0038,-0.0254,-0.0257,-0.0394,-0.0503,-0.0502,-0.0471,-0.0528,-0.0399,-0.0341,-0.0624,-0.051,-0.0511,-0.0512,0,-0.0073,-0.0003,-0.0112,0.0009,0.0098,-0.0012,0.0003,-0.0023,-0.0059,0.0002,-0.0159,-0.0101,-0.0356,-0.0296,-0.0425,-0.0492,-0.0546,-0.0578,-0.0577,-0.0576,-0.0527,-0.0488,-0.0434,-0.036,-0.0523,-0.0521,-0.0521,0,-0.0146,-0.0212,-0.0201,-0.0118,-0.0232,-0.0193,-0.0259,-0.0257,-0.0163,-0.0332,-0.0227,-0.039,-0.0421,-0.0438,-0.0508,-0.0565,-0.0565,-0.0617,-0.0619,-0.0563,-0.0543,-0.0508,-0.0497,-0.0606,-0.0605,-0.0604,-0.0529,0,-0.022,-0.0222,-0.0234,-0.0269,-0.0302,-0.0305,-0.0378,-0.0402,-0.0434,-0.0469,-0.0477,-0.0569,-0.0561,-0.0622,-0.0665,-0.0656,-0.0649,-0.0692,-0.0684,-0.0677,-0.0648,-0.0641,-0.0734,-0.0735,-0.0735,-0.0736,0,0,-0.0221,-0.0234,-0.0321,-0.034,-0.0337,-0.0434,-0.0418,-0.0482,-0.0555,-0.0533,-0.0587,-0.0625,-0.0679,-0.0661,-0.0683,-0.072,-0.0707,-0.0686,-0.0695,-0.069,-0.0686,-0.0657,-0.0649,-0.0737,-0.0737,-0.0737,-0.0737,0,-0.0233,-0.0282,-0.03,-0.0345,-0.0408,-0.0444,-0.0459,-0.0534,-0.0555,-0.0593,-0.0611,-0.0644,-0.0688,-0.0698,-0.0708,-0.0727,-0.0714,-0.0742,-0.0691,-0.07,-0.0695,-0.069,-0.066,-0.0653,-0.0739,-0.0739,-0.0739,0,-0.0235,-0.0278,-0.0301,-0.038,-0.0424,-0.0452,-0.0497,-0.0549,-0.056,-0.0601,-0.0619,-0.0654,-0.068,-0.0699,-0.0711,-0.0712,-0.0714,-0.0736,-0.0734,-0.07,-0.0708,-0.0703,-0.0698,-0.0752,-0.0752,-0.0752,0,0,-0.0237,-0.0273,-0.0348,-0.0386,-0.0411,-0.0478,-0.0514,-0.0543,-0.0588,-0.0605,-0.0631,-0.0653,-0.0672,-0.0682,-0.0706,-0.073,-0.072,-0.0734,-0.0734,-0.0733,-0.0699,-0.0707,-0.0702,-0.0751,-0.0751,-0.0751,0,0,-0.024,-0.0314,-0.0331,-0.0378,-0.044,-0.0516,-0.0542,-0.0575,-0.0614,-0.0602,-0.0626,-0.0631,-0.0653,-0.0673,-0.0658,-0.0694,-0.0702,-0.0706,-0.0665,-0.0665,-0.0665,-0.0613,-0.0652,0,0,0,0,0,-0.028,-0.0305,-0.032,-0.0336,-0.0433,-0.0509,-0.0525,-0.0567,-0.0569,-0.0595,-0.0611,-0.061,-0.0667,-0.0654,-0.0661,-0.0656,-0.0738,-0.074,-0.0742,-0.0698,-0.0697,-0.0697,0,0,0,0,0,0,-0.0287,-0.0305,-0.032,-0.0393,-0.0416,-0.0508,-0.0508,-0.0521,-0.0567,-0.0569,-0.0608,-0.0611,-0.0619,-0.0651,-0.0657,-0.0652,-0.065,-0.0739,-0.0741,-0.0742,-0.0698,-0.0697,-0.0697,0,0,0,0,0,-0.0293,-0.0307,-0.0447,-0.0394,-0.0414,-0.048,-0.0507,-0.0518,-0.0555,-0.0583,-0.0589,-0.0585,-0.0619,-0.0625,-0.0655,-0.0648,-0.0645,-0.0648,-0.074,-0.0742,-0.0743,-0.0698,0,0,0,0,0,0,-0.0297,-0.0322,-0.0453,-0.0461,-0.038,-0.0477,-0.0491,-0.0514,-0.0566,-0.0574,-0.0558,-0.0559,-0.062,-0.0624,-0.0629,-0.0645,-0.0642,-0.0644,-0.0646,-0.0741,-0.0742,-0.0743,0,0,0,0,0,0,-0.0314,-0.0328,-0.0457,-0.0437,-0.0444,-0.0473,-0.0485,-0.0514,-0.0564,-0.0538,-0.0541,-0.0558,-0.0593,-0.0624,-0.0627,-0.0672,-0.0639,-0.0641,-0.0643,-0.0644,-0.0742,-0.0743,0,0,0,0,0,0,-0.0321,-0.0334,-0.0435,-0.044,-0.0446,-0.0546,-0.0497,-0.0582,-0.0586,-0.0533,-0.0584,-0.0582,-0.0591,-0.0597,-0.0626,-0.067,-0.0672,-0.0639,-0.064,-0.0642,-0.0642,0,0,0,0,0,0,0,-0.0327,-0.023,-0.0402,-0.0443,-0.0448,-0.0541,-0.0543,-0.0546,-0.0586,-0.0585,-0.0584,-0.0583,-0.0625,-0.0628,-0.063,-0.0668,0,0,-0.0639,-0.064,0,0,0,0,0,0,0,0,-0.0226,-0.0229,-0.0403,-0.0404,-0.0406,-0.0541,-0.0543,-0.0545,-0.0586,-0.0585,-0.0584,-0.0583,-0.0626,-0.0628,-0.063,0,0,0,0,0,0,0,0,0,0,0,0,0,0,0,-0.0403,-0.0404,0,-0.0542,-0.0543,-0.0545,-0.0586,-0.0585,-0.0584,-0.0584,-0.0626,-0.0628,-0.063,0,0,0,0,0,0,0,0,0,0,0,0,0,0,0,0,0,0,0,0,0,0,0,0,0,0,0,0,0,0,0,0,0,0,0,0,0,0,0,0,0,0,0,0,0,0,0,0,0,0,0,0,0,0,0,0,0,0,0,0,0,0,0,0,0,0,0,0,0]}]],[[{"header":{"parameterUnit":"kt","parameterCategory":2,"dx":1,"dy":1,"la1":30.253999710083008,"la2":30.299108505249023,"lo1":-89.0895004272461,"lo2":-89.04439544677734,"nx":28,"ny":28,"refTime":"2022-10-04T21:00:00:Z","depth":"2","parameterNumber":2,"parameterNumberName":"U-component_of_CURRENTS"},"data":[0.322,0.3293,0.3301,0.3357,0.3424,0.3357,0.3318,0.3171,0.3106,0.2892,0.2819,0.295,0.3183,0.2752,0.2767,0.2646,0.2749,0.2542,0.3621,0.329,0.3324,0.3447,0.3191,0,0,0,0,0,0.3123,0.3196,0.3299,0.3354,0.34,0.3465,0.3504,0.3403,0.3365,0.3452,0.3492,0.322,0.3188,0.3386,0.3299,0.3325,0.314,0.3222,0.2904,0.2952,0.2993,0.2787,0.2534,0.2529,0.2525,0.2522,0,0,0.3006,0.3063,0.316,0.3246,0.3347,0.3399,0.3394,0.3496,0.357,0.3635,0.3875,0.3881,0.3993,0.4016,0.4001,0.4012,0.4251,0.3969,0.3971,0.3981,0.384,0.3784,0.3858,0.3863,0.3867,0.3871,0.3875,0,0.2938,0.2941,0.3033,0.3135,0.3209,0.3312,0.342,0.3481,0.3635,0.3757,0.3982,0.4093,0.4429,0.4344,0.4529,0.4491,0.4331,0.4313,0.4805,0.3647,0.3581,0.3568,0.3567,0.364,0.3644,0.3648,0.365,0.3651,0.2869,0.2902,0.2997,0.3069,0.3112,0.3183,0.3276,0.3368,0.3486,0.3762,0.3879,0.4173,0.4328,0.4641,0.4638,0.4732,0.4774,0.4402,0.408,0.4422,0.4417,0.439,0.4365,0.3695,0.369,0.3685,0.3682,0,0.288,0.2919,0.2982,0.3087,0.3115,0.315,0.3291,0.3387,0.3473,0.3666,0.3702,0.3923,0.4165,0.4307,0.4458,0.4408,0.4507,0.4554,0.4143,0.4111,0.4359,0.4338,0.4615,0.4618,0.4621,0.4624,0.4626,0,0.2933,0.2957,0.3038,0.3068,0.3142,0.3186,0.3272,0.3337,0.3465,0.3605,0.3646,0.3791,0.3851,0.4045,0.4045,0.4219,0.4257,0.4146,0.4169,0.3784,0.3754,0.3944,0.392,0.4123,0.4121,0.4118,0.4117,0,0.2955,0.3026,0.3074,0.3097,0.32,0.3225,0.3268,0.3366,0.345,0.353,0.3617,0.3709,0.3789,0.3835,0.3937,0.3827,0.4142,0.3993,0.4081,0.4085,0.3752,0.3722,0.4114,0.4114,0.4113,0.4112,0.4112,0,0.3005,0.306,0.3101,0.3195,0.3208,0.3215,0.3315,0.3351,0.3453,0.3484,0.3559,0.3571,0.3667,0.3574,0.3745,0.3668,0.3705,0.3729,0.374,0.3742,0.3698,0.3552,0.3646,0.3853,0.385,0.3847,0.3845,0,0.3059,0.3091,0.3116,0.3151,0.3175,0.3212,0.3255,0.3299,0.3331,0.3389,0.3421,0.3448,0.3403,0.341,0.3466,0.3503,0.3584,0.3457,0.3618,0.3624,0.365,0.3809,0.3398,0.361,0.3806,0.381,0.3813,0,0.3065,0.3115,0.3107,0.3145,0.3164,0.3156,0.32,0.3245,0.3294,0.3275,0.3352,0.3346,0.3348,0.3351,0.334,0.3386,0.3525,0.3347,0.3348,0.3469,0.3723,0.3754,0.3783,0.35,0.3503,0.3506,0.3783,0,0.3142,0.3145,0.3131,0.3153,0.3151,0.3139,0.3151,0.3155,0.3157,0.3166,0.3212,0.3177,0.3202,0.3204,0.3173,0.3271,0.3283,0.3235,0.3206,0.3284,0.3395,0.3419,0.3105,0.3103,0.3101,0.31,0,0,0.3167,0.3161,0.3141,0.3141,0.3149,0.3133,0.3141,0.3125,0.3086,0.3114,0.3081,0.3092,0.306,0.3131,0.315,0.3115,0.3164,0.3104,0.323,0.3244,0.3258,0.3368,0.3393,0.3097,0.3097,0.3096,0.3096,0,0.3185,0.3169,0.3158,0.315,0.3136,0.3125,0.3127,0.309,0.3093,0.3066,0.3075,0.3088,0.3024,0.3055,0.3057,0.3089,0.3101,0.3083,0.3145,0.3214,0.3231,0.3245,0.3357,0.3381,0.3092,0.3092,0.3092,0,0.3221,0.3213,0.3199,0.317,0.3149,0.3144,0.3129,0.3095,0.3106,0.3055,0.3046,0.3029,0.3008,0.3007,0.3002,0.2982,0.3054,0.2979,0.2987,0.2986,0.3055,0.3074,0.309,0.2881,0.288,0.288,0,0,0.3243,0.3224,0.3206,0.3173,0.3167,0.3137,0.3113,0.3108,0.3077,0.3065,0.3035,0.3015,0.301,0.2998,0.2965,0.2933,0.2961,0.2957,0.2967,0.2975,0.298,0.305,0.3067,0.2879,0.2879,0.2879,0,0,0.3247,0.323,0.3244,0.3201,0.3183,0.313,0.3102,0.3098,0.3063,0.3071,0.304,0.303,0.3025,0.2982,0.297,0.2979,0.2935,0.2934,0.3014,0.3025,0.3035,0.3055,0.295,0,0,0,0,0,0.327,0.3233,0.3246,0.3239,0.3173,0.3125,0.3112,0.3099,0.3111,0.3096,0.3078,0.3057,0.2992,0.2979,0.2959,0.2997,0.2861,0.2864,0.2867,0.2961,0.2974,0.2985,0,0,0,0,0,0,0.3266,0.3257,0.3247,0.3197,0.3182,0.3125,0.3139,0.3133,0.3114,0.3118,0.306,0.3054,0.3028,0.2986,0.2968,0.3006,0.2955,0.2862,0.2865,0.2867,0.2966,0.2976,0.2985,0,0,0,0,0,0.3264,0.3256,0.3168,0.3196,0.3183,0.3155,0.3142,0.3137,0.3119,0.3071,0.3065,0.3119,0.3027,0.3012,0.2975,0.3017,0.2967,0.2961,0.2864,0.2866,0.2868,0.2971,0,0,0,0,0,0,0.3262,0.3228,0.3163,0.3157,0.3231,0.3159,0.3151,0.3141,0.3073,0.3067,0.3127,0.3131,0.3024,0.3014,0.3003,0.3026,0.2977,0.297,0.2966,0.2865,0.2867,0.2869,0,0,0,0,0,0,0.3232,0.3223,0.3159,0.3205,0.3203,0.3162,0.3156,0.308,0.3072,0.3131,0.3133,0.313,0.3054,0.3014,0.3006,0.2886,0.2984,0.2978,0.2974,0.2971,0.2867,0.2868,0,0,0,0,0,0,0.3227,0.3219,0.3206,0.3204,0.3203,0.3124,0.3093,0.3031,0.3102,0.3134,0.311,0.3114,0.3055,0.3046,0.3008,0.2891,0.2887,0.2984,0.298,0.2977,0.2975,0,0,0,0,0,0,0,0.3223,0.3293,0.321,0.3204,0.3203,0.31,0.3097,0.3095,0.3103,0.3106,0.3109,0.3112,0.3019,0.3012,0.3006,0.2895,0,0,0.2984,0.2981,0,0,0,0,0,0,0,0,0.3295,0.3294,0.321,0.3209,0.3208,0.3099,0.3097,0.3095,0.3103,0.3106,0.3109,0.3111,0.3017,0.3012,0.3006,0,0,0,0,0,0,0,0,0,0,0,0,0,0,0,0.321,0.3209,0,0.3099,0.3097,0.3096,0.3104,0.3106,0.3108,0.311,0.3016,0.3011,0.3007,0,0,0,0,0,0,0,0,0,0,0,0,0,0,0,0,0,0,0,0,0,0,0,0,0,0,0,0,0,0,0,0,0,0,0,0,0,0,0,0,0,0,0,0,0,0,0,0,0,0,0,0,0,0,0,0,0,0,0,0,0,0,0,0,0,0,0,0,0]}],[{"header":{"parameterUnit":"kt","parameterCategory":2,"dx":1,"dy":1,"la1":30.253999710083008,"la2":30.299108505249023,"lo1":-89.0895004272461,"lo2":-89.04439544677734,"nx":28,"ny":28,"refTime":"2022-10-04T21:00:00:Z","depth":"2","parameterNumber":3,"parameterNumberName":"V-component_of_CURRENTS"},"data":[-0.1114,-0.1065,-0.099,-0.0825,-0.0731,-0.0507,-0.0322,0.003,0.0281,0.0722,0.0896,0.0982,0.0526,0.0212,-0.0222,-0.0525,-0.0571,-0.0584,-0.0606,-0.043,-0.042,-0.0699,-0.0716,0,0,0,0,0,-0.0994,-0.0933,-0.0967,-0.0792,-0.0705,-0.0637,-0.0461,-0.0238,0.0138,0.0304,0.0564,0.0491,0.0364,0.0009,-0.048,-0.0761,-0.0747,-0.087,-0.0767,-0.0761,-0.0756,-0.0772,-0.0814,-0.0814,-0.0815,-0.0815,0,0,-0.0673,-0.0764,-0.064,-0.0609,-0.0565,-0.045,-0.0368,-0.022,-0.0076,0.0181,0.0113,0.0337,0.0067,-0.011,-0.0419,-0.0765,-0.075,-0.0814,-0.0807,-0.0801,-0.0824,-0.0827,-0.0877,-0.0878,-0.0878,-0.0879,-0.0879,0,-0.0355,-0.0313,-0.0311,-0.0261,-0.0214,-0.0256,-0.0187,-0.0195,-0.0067,-0.0015,0.0058,0.0131,-0.0137,-0.0201,-0.0462,-0.0596,-0.067,-0.0763,-0.0756,-0.0662,-0.0656,-0.069,-0.0691,-0.0674,-0.0673,-0.0673,-0.0673,-0.0673,-0.0028,-0.0018,0.0046,0.0054,0.0056,0.0111,0.0116,0.0217,0.0177,0.0162,0.0064,-0.0024,-0.006,-0.0288,-0.0488,-0.0604,-0.0698,-0.0742,-0.0746,-0.0741,-0.0777,-0.0776,-0.0776,-0.0667,-0.0668,-0.0668,-0.0669,0,0.0064,0.0169,0.017,0.0266,0.0316,0.0328,0.0294,0.0317,0.0398,0.0272,0.0274,0.0177,0.0049,-0.0116,-0.0276,-0.043,-0.057,-0.0688,-0.0625,-0.0657,-0.076,-0.0763,-0.0765,-0.0768,-0.077,-0.0773,-0.0774,0,0.0103,0.0153,0.0207,0.023,0.0289,0.036,0.0405,0.0433,0.0429,0.0336,0.0354,0.0226,0.011,-0.0071,-0.0203,-0.0466,-0.0411,-0.066,-0.0697,-0.0648,-0.0653,-0.0641,-0.0647,-0.059,-0.059,-0.059,-0.059,0,0.002,0.0037,0.0098,0.0099,0.0106,0.0177,0.0208,0.0215,0.0147,0.0265,0.0198,0.019,0.0077,-0.0012,-0.0306,-0.0309,-0.0492,-0.0505,-0.069,-0.0696,-0.0665,-0.0671,-0.059,-0.059,-0.059,-0.059,-0.059,0,-0.0126,-0.0124,-0.0083,-0.0022,-0.0011,0.0016,0.0104,0.0091,0.0078,0.0064,0.0021,-0.0055,-0.0131,-0.0261,-0.0409,-0.0405,-0.0517,-0.0619,-0.0621,-0.0711,-0.0782,-0.0708,-0.0689,-0.0667,-0.0668,-0.0668,-0.0669,0,-0.0192,-0.0185,-0.0245,-0.0195,-0.0171,-0.0229,-0.0212,-0.0233,-0.0258,-0.0228,-0.0335,-0.032,-0.0472,-0.0451,-0.0525,-0.0609,-0.0646,-0.0659,-0.0703,-0.0703,-0.0762,-0.0755,-0.0704,-0.0695,-0.0675,-0.0674,-0.0674,0,-0.0238,-0.031,-0.0303,-0.0271,-0.0352,-0.0352,-0.0378,-0.0388,-0.0328,-0.0451,-0.0389,-0.0506,-0.0532,-0.055,-0.0613,-0.0659,-0.0661,-0.0708,-0.071,-0.0681,-0.0666,-0.0753,-0.0757,-0.0693,-0.0692,-0.0691,-0.0679,0,-0.0297,-0.0311,-0.0325,-0.0363,-0.0398,-0.0415,-0.0476,-0.0498,-0.053,-0.0565,-0.058,-0.0662,-0.0666,-0.072,-0.0757,-0.0748,-0.0756,-0.0793,-0.079,-0.0777,-0.0778,-0.0774,-0.0838,-0.0839,-0.084,-0.0841,0,0,-0.0293,-0.0319,-0.0394,-0.0416,-0.0426,-0.0511,-0.0511,-0.0563,-0.0642,-0.0629,-0.0673,-0.0727,-0.0778,-0.0769,-0.078,-0.0822,-0.0822,-0.0791,-0.0797,-0.0792,-0.0788,-0.0787,-0.0782,-0.0842,-0.0843,-0.0843,-0.0843,0,-0.0307,-0.0353,-0.0373,-0.0419,-0.0484,-0.0523,-0.0538,-0.0617,-0.0638,-0.068,-0.0703,-0.0736,-0.0791,-0.0803,-0.0816,-0.0831,-0.0835,-0.085,-0.0792,-0.0805,-0.0799,-0.0793,-0.0791,-0.0786,-0.0845,-0.0845,-0.0845,0,-0.0309,-0.0352,-0.0375,-0.0456,-0.0502,-0.0532,-0.0579,-0.0632,-0.0645,-0.0693,-0.0716,-0.0755,-0.0789,-0.0811,-0.0825,-0.0829,-0.0842,-0.0857,-0.0854,-0.0822,-0.0835,-0.0828,-0.0823,-0.0887,-0.0887,-0.0886,0,0,-0.0313,-0.0347,-0.0425,-0.0463,-0.0489,-0.0559,-0.0597,-0.0628,-0.0676,-0.0695,-0.0728,-0.0756,-0.078,-0.0793,-0.0824,-0.0853,-0.0855,-0.0858,-0.0856,-0.0854,-0.0822,-0.0833,-0.0828,-0.0886,-0.0886,-0.0886,0,0,-0.0317,-0.0392,-0.041,-0.0455,-0.052,-0.0601,-0.0627,-0.0662,-0.0706,-0.0693,-0.0726,-0.0733,-0.0759,-0.0787,-0.0772,-0.0813,-0.0827,-0.0831,-0.0778,-0.0777,-0.0775,-0.0723,-0.0773,0,0,0,0,0,-0.036,-0.0383,-0.0398,-0.0414,-0.0515,-0.0594,-0.061,-0.0655,-0.0657,-0.0684,-0.0704,-0.071,-0.0781,-0.0768,-0.0778,-0.0771,-0.0874,-0.0876,-0.0878,-0.0818,-0.0816,-0.0814,0,0,0,0,0,0,-0.0366,-0.0385,-0.0398,-0.0476,-0.0499,-0.0593,-0.0594,-0.0608,-0.0655,-0.0657,-0.0706,-0.0711,-0.0725,-0.0764,-0.0773,-0.0765,-0.077,-0.0875,-0.0876,-0.0878,-0.0818,-0.0816,-0.0814,0,0,0,0,0,-0.0372,-0.0387,-0.053,-0.0477,-0.0497,-0.0567,-0.0593,-0.0604,-0.0643,-0.068,-0.0687,-0.0674,-0.0725,-0.0734,-0.0769,-0.076,-0.0764,-0.0767,-0.0876,-0.0877,-0.0878,-0.0817,0,0,0,0,0,0,-0.0376,-0.0404,-0.0536,-0.0545,-0.0462,-0.0563,-0.0578,-0.0601,-0.0664,-0.0673,-0.0647,-0.0648,-0.0726,-0.0732,-0.0739,-0.0757,-0.0759,-0.0762,-0.0765,-0.0877,-0.0878,-0.0879,0,0,0,0,0,0,-0.0396,-0.041,-0.054,-0.0518,-0.0526,-0.0559,-0.0572,-0.061,-0.0662,-0.0626,-0.063,-0.0646,-0.0699,-0.0731,-0.0736,-0.0796,-0.0755,-0.0758,-0.0761,-0.0762,-0.0878,-0.0879,0,0,0,0,0,0,-0.0404,-0.0416,-0.0516,-0.0522,-0.0528,-0.0633,-0.0592,-0.0681,-0.0677,-0.0621,-0.0674,-0.0673,-0.0696,-0.0703,-0.0735,-0.0792,-0.0795,-0.0755,-0.0758,-0.0759,-0.076,0,0,0,0,0,0,0,-0.041,-0.0308,-0.0482,-0.0525,-0.053,-0.0628,-0.0631,-0.0633,-0.0677,-0.0676,-0.0675,-0.0674,-0.0737,-0.074,-0.0744,-0.0789,0,0,-0.0755,-0.0757,0,0,0,0,0,0,0,0,-0.0305,-0.0307,-0.0482,-0.0484,-0.0485,-0.0629,-0.0631,-0.0633,-0.0677,-0.0676,-0.0675,-0.0674,-0.0738,-0.0741,-0.0744,0,0,0,0,0,0,0,0,0,0,0,0,0,0,0,-0.0482,-0.0484,0,-0.0629,-0.0631,-0.0632,-0.0677,-0.0676,-0.0675,-0.0674,-0.0739,-0.0741,-0.0743,0,0,0,0,0,0,0,0,0,0,0,0,0,0,0,0,0,0,0,0,0,0,0,0,0,0,0,0,0,0,0,0,0,0,0,0,0,0,0,0,0,0,0,0,0,0,0,0,0,0,0,0,0,0,0,0,0,0,0,0,0,0,0,0,0,0,0,0,0]}]],[[{"header":{"parameterUnit":"kt","parameterCategory":2,"dx":1,"dy":1,"la1":30.253999710083008,"la2":30.299108505249023,"lo1":-89.0895004272461,"lo2":-89.04439544677734,"nx":28,"ny":28,"refTime":"2022-10-04T21:00:00:Z","depth":"4","parameterNumber":2,"parameterNumberName":"U-component_of_CURRENTS"},"data":[0.126,0.1317,0.1348,0.1358,0.1401,0.1456,0.1509,0.1598,0.1589,0.1761,0.1844,0.1997,0.2162,0.2226,0.2329,0.2367,0.2403,0.269,0.2685,0.2835,0.2854,0.2872,0.2841,0,0,0,0,0,0.1307,0.1345,0.1386,0.1461,0.1539,0.1601,0.1685,0.1743,0.1896,0.1878,0.1999,0.2092,0.2228,0.2348,0.2351,0.2554,0.2717,0.2549,0.2664,0.2847,0.2868,0.2832,0,0,0,0,0,0,0.1417,0.1413,0.1531,0.1598,0.1686,0.1701,0.1743,0.1831,0.1891,0.2117,0.2119,0.2328,0.248,0.255,0.2637,0.2683,0.2696,0.2636,0.2667,0.269,0.2625,0.2454,0.2294,0,0,0,0,0,0.1515,0.1591,0.1656,0.1743,0.1833,0.1862,0.1999,0.1989,0.2192,0.2327,0.2387,0.2468,0.2553,0.2676,0.2739,0.2831,0.3036,0.2981,0.2994,0.3043,0.2943,0.2927,0.2931,0.295,0.2952,0.2954,0.2955,0,0.1662,0.1691,0.1835,0.1881,0.1969,0.2075,0.2155,0.233,0.2373,0.2556,0.2577,0.2701,0.2799,0.2798,0.2976,0.307,0.3081,0.3036,0.3088,0.2977,0.2956,0.2955,0.2953,0.2972,0.2971,0.297,0.2968,0,0.1725,0.1847,0.1905,0.2072,0.2129,0.2187,0.2346,0.2397,0.2564,0.263,0.2683,0.2846,0.294,0.3059,0.3179,0.3166,0.3204,0.3175,0.3264,0.325,0.2989,0.2979,0.3001,0.2994,0.2989,0.2985,0.2981,0,0.1839,0.1898,0.2057,0.2088,0.2165,0.2322,0.2406,0.2503,0.2654,0.2719,0.2893,0.2914,0.3095,0.3158,0.3232,0.322,0.3346,0.3188,0.3169,0.3331,0.332,0.3296,0.328,0.3439,0.3439,0.3439,0.344,0,0.1879,0.2001,0.2081,0.2119,0.2258,0.2337,0.2434,0.2584,0.2642,0.2804,0.2841,0.3017,0.306,0.318,0.3221,0.3232,0.3312,0.333,0.3184,0.3167,0.3291,0.3275,0.344,0.344,0.344,0.344,0.344,0,0.1953,0.2006,0.2105,0.2212,0.2243,0.2322,0.2436,0.2528,0.2689,0.2757,0.2893,0.2951,0.3077,0.3076,0.3206,0.3183,0.3215,0.3218,0.3218,0.3013,0.295,0.3006,0.3153,0.3151,0.315,0.3148,0.3147,0,0.195,0.2025,0.2094,0.2182,0.2221,0.2297,0.2394,0.25,0.2584,0.2685,0.2796,0.289,0.2924,0.2952,0.3052,0.306,0.3129,0.3089,0.3112,0.311,0.2926,0.3025,0.3168,0.3127,0.3129,0.3131,0.3133,0,0.1923,0.2031,0.2047,0.2089,0.219,0.2205,0.2318,0.242,0.2482,0.2603,0.2708,0.2827,0.2867,0.29,0.2915,0.2983,0.3086,0.2968,0.297,0.2929,0.3203,0.3018,0.3011,0.3149,0.3153,0.3156,0.3118,0,0.1955,0.2011,0.2029,0.2102,0.2144,0.2182,0.2245,0.2302,0.238,0.2452,0.2582,0.2619,0.2712,0.2749,0.2746,0.2878,0.2829,0.2845,0.2799,0.2908,0.2869,0.2881,0.2711,0.2708,0.2707,0.2705,0,0,0.1928,0.1969,0.1988,0.2027,0.2062,0.2093,0.2145,0.2193,0.2264,0.2326,0.2335,0.2482,0.2516,0.2622,0.2669,0.2679,0.2684,0.2676,0.2848,0.2864,0.2879,0.2849,0.2862,0.2702,0.2701,0.27,0.27,0,0.1918,0.1946,0.1979,0.2004,0.2047,0.2067,0.2091,0.2136,0.2192,0.2278,0.23,0.2378,0.2459,0.2502,0.2533,0.2644,0.2624,0.2674,0.2747,0.283,0.2849,0.2865,0.284,0.2853,0.2695,0.2696,0.2696,0,0.1905,0.1921,0.1938,0.1968,0.1996,0.2033,0.2032,0.2072,0.213,0.2124,0.2236,0.2266,0.2301,0.2388,0.2432,0.2409,0.256,0.2519,0.2529,0.2513,0.2595,0.2617,0.2636,0.2387,0.2387,0.2386,0,0,0.1901,0.1927,0.1943,0.1964,0.198,0.2014,0.2033,0.2059,0.2094,0.2125,0.2169,0.2223,0.2273,0.2315,0.2344,0.2419,0.2406,0.2484,0.2498,0.251,0.2501,0.2586,0.2607,0.2383,0.2382,0.2382,0,0,0.189,0.1913,0.194,0.1957,0.1981,0.1989,0.2016,0.2044,0.2103,0.213,0.2148,0.2159,0.2247,0.2249,0.2205,0.2358,0.2296,0.2304,0.2367,0.2384,0.2399,0.2379,0.2184,0,0,0,0,0,0.1896,0.1905,0.1929,0.1934,0.1966,0.1976,0.1983,0.2018,0.2053,0.208,0.2128,0.2124,0.2237,0.2197,0.2204,0.2286,0.2341,0.2348,0.2355,0.2451,0.247,0.2486,0,0,0,0,0,0,0.1897,0.1903,0.1927,0.1932,0.1939,0.1976,0.199,0.2,0.2052,0.206,0.2115,0.2123,0.2124,0.2193,0.2199,0.2279,0.2182,0.2343,0.235,0.2355,0.2457,0.2473,0.2486,0,0,0,0,0,0.1899,0.1903,0.195,0.1933,0.1939,0.1979,0.1991,0.2,0.206,0.2064,0.2077,0.2091,0.2122,0.2132,0.2197,0.2277,0.2178,0.218,0.2348,0.2353,0.2357,0.2465,0,0,0,0,0,0,0.19,0.1917,0.1952,0.1954,0.1944,0.198,0.1989,0.2,0.2065,0.2074,0.2035,0.204,0.2121,0.2128,0.2135,0.2279,0.2174,0.2177,0.2178,0.2351,0.2355,0.2359,0,0,0,0,0,0,0.1915,0.1919,0.1953,0.1965,0.197,0.1981,0.1988,0.2007,0.2066,0.2033,0.2038,0.2036,0.2114,0.2126,0.2131,0.2159,0.2172,0.2174,0.2176,0.2177,0.2355,0.2358,0,0,0,0,0,0,0.1917,0.1921,0.1965,0.1969,0.1973,0.201,0.1999,0.2038,0.2057,0.2031,0.2061,0.2063,0.2111,0.2117,0.2128,0.2153,0.2157,0.2172,0.2173,0.2174,0.2175,0,0,0,0,0,0,0,0.1919,0.1885,0.193,0.1972,0.1976,0.1978,0.1979,0.1981,0.2058,0.2059,0.2061,0.2062,0.2159,0.2161,0.2164,0.2148,0,0,0.2172,0.2173,0,0,0,0,0,0,0,0,0.1884,0.1885,0.193,0.193,0.193,0.1978,0.1979,0.1981,0.2058,0.2059,0.206,0.2062,0.216,0.2162,0.2164,0,0,0,0,0,0,0,0,0,0,0,0,0,0,0,0.193,0.193,0,0.1979,0.1979,0.198,0.2058,0.2059,0.206,0.2061,0.216,0.2162,0.2164,0,0,0,0,0,0,0,0,0,0,0,0,0,0,0,0,0,0,0,0,0,0,0,0,0,0,0,0,0,0,0,0,0,0,0,0,0,0,0,0,0,0,0,0,0,0,0,0,0,0,0,0,0,0,0,0,0,0,0,0,0,0,0,0,0,0,0,0,0]}],[{"header":{"parameterUnit":"kt","parameterCategory":2,"dx":1,"dy":1,"la1":30.253999710083008,"la2":30.299108505249023,"lo1":-89.0895004272461,"lo2":-89.04439544677734,"nx":28,"ny":28,"refTime":"2022-10-04T21:00:00:Z","depth":"4","parameterNumber":3,"parameterNumberName":"V-component_of_CURRENTS"},"data":[-0.0281,-0.0176,-0.0199,-0.0007,0.0056,0.0175,0.0258,0.0306,0.0377,0.0403,0.0322,0.026,0.0084,0.0249,-0.007,-0.0122,-0.0214,-0.0446,-0.045,-0.0583,-0.0582,-0.0581,-0.0454,0,0,0,0,0,-0.044,-0.0384,-0.0251,-0.0187,-0.0081,-0.0058,0.0103,0.0131,0.0172,0.0361,0.0318,0.0338,0.018,0.0084,-0.0049,-0.0174,-0.0378,-0.0343,-0.0452,-0.0582,-0.0582,-0.0457,0,0,0,0,0,0,-0.0623,-0.0573,-0.0499,-0.0425,-0.0308,-0.0164,-0.0145,0.0045,0.01,0.0206,0.029,0.0232,0.0173,-0.0043,-0.0144,-0.0293,-0.0313,-0.0365,-0.0376,-0.0378,-0.0248,-0.0195,-0.0238,0,0,0,0,0,-0.0749,-0.0763,-0.0721,-0.0621,-0.0541,-0.0418,-0.0303,-0.0226,-0.0127,-0.0144,0.0052,0.0006,0.0003,-0.0114,-0.0283,-0.0359,-0.0553,-0.0573,-0.0573,-0.0495,-0.0479,-0.0503,-0.0495,-0.0579,-0.0579,-0.0579,-0.0579,0,-0.0732,-0.0806,-0.0766,-0.0695,-0.0676,-0.0664,-0.0567,-0.0557,-0.0428,-0.031,-0.0189,-0.0198,-0.0133,-0.0221,-0.032,-0.0487,-0.0462,-0.0572,-0.0487,-0.0477,-0.0504,-0.0494,-0.0485,-0.0579,-0.0579,-0.0579,-0.0579,0,-0.0641,-0.0665,-0.0727,-0.0704,-0.0694,-0.0722,-0.0595,-0.0545,-0.0567,-0.0417,-0.0409,-0.0336,-0.0312,-0.0359,-0.0419,-0.0429,-0.0484,-0.0491,-0.0454,-0.0486,-0.049,-0.0481,-0.0578,-0.0578,-0.0578,-0.0578,-0.0578,0,-0.0434,-0.0523,-0.0474,-0.0549,-0.0578,-0.0578,-0.0601,-0.058,-0.053,-0.0418,-0.0452,-0.0343,-0.0375,-0.0359,-0.0375,-0.0371,-0.0404,-0.0364,-0.0401,-0.0347,-0.034,-0.0388,-0.0385,-0.0399,-0.0398,-0.0397,-0.0395,0,-0.0297,-0.0281,-0.0368,-0.0378,-0.038,-0.041,-0.0397,-0.0379,-0.0331,-0.0389,-0.0359,-0.0366,-0.0342,-0.0366,-0.0303,-0.0288,-0.0343,-0.035,-0.0367,-0.0369,-0.0379,-0.0378,-0.0394,-0.0394,-0.0393,-0.0393,-0.0392,0,-0.0119,-0.0133,-0.0202,-0.0249,-0.0262,-0.0267,-0.0315,-0.0292,-0.0281,-0.0282,-0.0261,-0.0255,-0.0219,-0.0179,-0.0186,-0.0158,-0.0196,-0.0211,-0.0219,-0.0223,-0.026,-0.0354,-0.0347,-0.0346,-0.0345,-0.0343,-0.0342,0,-0.0049,-0.0087,-0.0054,-0.0103,-0.0159,-0.0124,-0.0109,-0.0106,-0.0106,-0.0148,-0.0112,-0.0154,-0.0068,-0.0111,-0.008,-0.0122,-0.0141,-0.0076,-0.0267,-0.0274,-0.0251,-0.0238,-0.0143,-0.0324,-0.0326,-0.0328,-0.0329,0,-0.0031,-0.0038,-0.0043,-0.0091,-0.0063,-0.0091,-0.0042,-0.0058,-0.0094,-0.0061,-0.0119,-0.0058,-0.0085,-0.0094,-0.0097,-0.0095,-0.0122,-0.0128,-0.0132,-0.0203,-0.0251,-0.0223,-0.0232,-0.014,-0.0141,-0.0141,-0.0317,0,-0.0026,-0.0044,-0.0041,-0.0046,-0.0046,-0.0061,-0.0051,-0.005,-0.0067,-0.0082,-0.0097,-0.0097,-0.0138,-0.0116,-0.0119,-0.0118,-0.017,-0.0178,-0.0214,-0.0186,-0.027,-0.0279,-0.0188,-0.0189,-0.019,-0.0191,0,0,-0.0036,-0.0056,-0.0058,-0.0057,-0.0077,-0.0084,-0.0096,-0.0084,-0.0111,-0.0134,-0.0132,-0.0176,-0.0179,-0.0183,-0.0155,-0.0171,-0.0227,-0.0188,-0.0193,-0.0193,-0.0193,-0.0271,-0.0278,-0.0193,-0.0194,-0.0194,-0.0194,0,-0.005,-0.006,-0.006,-0.0066,-0.0086,-0.0097,-0.0096,-0.0124,-0.0133,-0.0142,-0.017,-0.0175,-0.0208,-0.0211,-0.0219,-0.0188,-0.0257,-0.0198,-0.0162,-0.0202,-0.02,-0.0199,-0.0274,-0.028,-0.0197,-0.0197,-0.0197,0,-0.0069,-0.0082,-0.0085,-0.0097,-0.0115,-0.0114,-0.0148,-0.0158,-0.0155,-0.0206,-0.0212,-0.0233,-0.026,-0.0258,-0.0261,-0.0279,-0.0297,-0.0274,-0.0268,-0.0271,-0.0315,-0.0312,-0.0309,-0.0342,-0.0342,-0.0343,0,0,-0.0078,-0.0081,-0.0104,-0.0102,-0.0109,-0.0142,-0.0153,-0.017,-0.0192,-0.0202,-0.0228,-0.0254,-0.0264,-0.0275,-0.0291,-0.0297,-0.0344,-0.0289,-0.0282,-0.0276,-0.0275,-0.0317,-0.0314,-0.0344,-0.0344,-0.0344,0,0,-0.0083,-0.0108,-0.0123,-0.0122,-0.0134,-0.0166,-0.017,-0.0191,-0.0212,-0.0221,-0.0257,-0.0264,-0.0265,-0.0293,-0.0299,-0.0297,-0.0328,-0.0327,-0.0273,-0.0265,-0.0258,-0.0251,-0.0331,0,0,0,0,0,-0.0112,-0.0104,-0.0117,-0.0121,-0.0153,-0.016,-0.0166,-0.0193,-0.0215,-0.0209,-0.0238,-0.0262,-0.0297,-0.0304,-0.0312,-0.0294,-0.0355,-0.0353,-0.0351,-0.0282,-0.0273,-0.0266,0,0,0,0,0,0,-0.0114,-0.0117,-0.0118,-0.0147,-0.0155,-0.0161,-0.0191,-0.0199,-0.0215,-0.0218,-0.0257,-0.0263,-0.0286,-0.0302,-0.0309,-0.0291,-0.0329,-0.0354,-0.0352,-0.0351,-0.0279,-0.0272,-0.0266,0,0,0,0,0,-0.0115,-0.0118,-0.0157,-0.0148,-0.0155,-0.0191,-0.0191,-0.0198,-0.0211,-0.0249,-0.0256,-0.023,-0.0286,-0.0293,-0.0307,-0.0286,-0.0325,-0.0327,-0.0353,-0.0351,-0.035,-0.0276,0,0,0,0,0,0,-0.0116,-0.013,-0.0159,-0.0163,-0.0147,-0.0191,-0.0196,-0.0196,-0.0242,-0.0249,-0.0223,-0.0224,-0.0285,-0.0291,-0.0297,-0.0282,-0.0321,-0.0323,-0.0325,-0.0352,-0.0351,-0.035,0,0,0,0,0,0,-0.0129,-0.0132,-0.0161,-0.0158,-0.0162,-0.0191,-0.0195,-0.022,-0.0242,-0.0214,-0.0216,-0.0223,-0.0276,-0.029,-0.0294,-0.0332,-0.0318,-0.0321,-0.0322,-0.0323,-0.0351,-0.035,0,0,0,0,0,0,-0.0131,-0.0135,-0.0157,-0.016,-0.0163,-0.0212,-0.0214,-0.0244,-0.0239,-0.0211,-0.0239,-0.0239,-0.0274,-0.0279,-0.0292,-0.0328,-0.0331,-0.0318,-0.032,-0.0321,-0.0322,0,0,0,0,0,0,0,-0.0133,-0.0097,-0.0134,-0.0161,-0.0165,-0.0201,-0.0203,-0.0204,-0.0239,-0.0239,-0.0239,-0.0239,-0.0305,-0.0307,-0.031,-0.0325,0,0,-0.0318,-0.0319,0,0,0,0,0,0,0,0,-0.0097,-0.0097,-0.0135,-0.0135,-0.0136,-0.0202,-0.0203,-0.0204,-0.0239,-0.0239,-0.0239,-0.0239,-0.0306,-0.0308,-0.031,0,0,0,0,0,0,0,0,0,0,0,0,0,0,0,-0.0135,-0.0135,0,-0.0202,-0.0203,-0.0203,-0.0239,-0.0239,-0.0239,-0.0239,-0.0306,-0.0308,-0.031,0,0,0,0,0,0,0,0,0,0,0,0,0,0,0,0,0,0,0,0,0,0,0,0,0,0,0,0,0,0,0,0,0,0,0,0,0,0,0,0,0,0,0,0,0,0,0,0,0,0,0,0,0,0,0,0,0,0,0,0,0,0,0,0,0,0,0,0,0]}]]]